7 * 24
多渠道服务支持
STARLINK-32935 是 SpaceX Starlink 卫星互联网项目中的一颗低轨卫星,属于第 6 批次部署的星链卫星之一。该卫星于 2023 年发射,运行在约 550 公里的轨道高度,旨在为全球用户提供高速、低延迟的宽带互联网服务。Starlink 项目致力于构建一个由数千颗卫星组成的星座,以覆盖偏远和网络基础设施薄弱的地区。STARLINK-32935 采用先进的推进和通信技术,具备自主避障能力,有助于提升全球互联网接入的可靠性和普及率。
美国
(US)
| 数据来源 | 国际轨道数据 |
| 星历时间: | 2025-11-06T23:59:11+0800 1天前 查看轨道信息 |
| 半长轴: | 6861.069km |
| 偏心率: | 0.0001498 |
| 轨道倾角: | 43.001° |
| 近地点辐角 | 271.884° |
| 升交点赤经 | 60.408° |
| 平近点角 | 88.184° |
| 近地点: | 481.906km |
| 远地点: | 483.962km |
| 周期: | 94.264分钟 |
| 每日圈数: | 15.276192 |